Weather History for Fort Benning, GA

Change the Weather History Date:

Monday, November 19, 2012

  Actual Average Record
Temperature  
Mean Temperature 51 °F -  
Max Temperature 67 °F 66 °F 75 °F (1998)
Min Temperature 35 °F 40 °F 23 °F (2008)
Degree Days  
Heating Degree Days 14    
Growing Degree Days 1 (Base 50)    
Moisture  
Dew Point 40 °F    
Average Humidity 95    
Maximum Humidity 100    
Minimum Humidity 55    
Precipitation  
Precipitation 0.00 in - - ()
Sea Level Pressure  
Sea Level Pressure 30.28 in    
Wind  
Wind Speed 0 mph (North)    
Max Wind Speed 8 mph    
Max Gust Speed -    
Visibility 2 miles    
Events Fog , Snow    
Averages and records for this station are not official NWS values.
T = Trace of Precipitation, MM = Missing Value Source: NWS Daily Summary

Daily Weather History Graph

Daily Weather History Graph

Search for Another Location

Airport:

Trip Planner

Search our weather history database for the weather conditions in past years. The results will help you decide how hot, cold, wet, or windy it might be!

Date:

Astronomy

Nov. 19, 2012 Rise Set
Actual Time 7:13 AM EST 5:37 PM EST
Civil Twilight 6:47 AM EST 6:03 PM EST
Nautical Twilight 6:17 AM EST 6:33 PM EST
Astronomical Twilight 5:47 AM EST 7:02 PM EST
Moon 12:23 PM EST (11/19) 11:54 PM EST (11/19)
Length of Visible Light 11h 16m
Length of Day
10h 24m
Waxing Crescent, 40% of the Moon is Illuminated
Nov 19
Waxing Crescent
Nov 20
First Quarter
Nov 28
Full
Dec 6
Last Quarter
Dec 13
New

Hourly Weather History & Observations

Time (EST) Temp. Windchill Dew Point Humidity Pressure Visibility Wind Dir Wind Speed Gust Speed Precip Events Conditions
12:00 AM 42.8 °F - 42.8 °F 100% 30.31 in 3.0 mi Calm Calm - N/A   Clear
12:12 AM 42.8 °F - 42.8 °F 100% 30.31 in 2.5 mi Calm Calm - N/A   Clear
12:14 AM 42.8 °F - 42.8 °F 100% 30.31 in 1.5 mi Calm Calm - N/A   Clear
12:15 AM 42.8 °F - 41.0 °F 93% 30.31 in 1.2 mi Calm Calm - N/A   Clear
12:16 AM 42.8 °F - 41.0 °F 93% 30.31 in 1.0 mi Calm Calm - N/A   Clear
12:18 AM 42.8 °F - 41.0 °F 93% 30.31 in 0.8 mi Calm Calm - N/A   Clear
12:19 AM 42.8 °F - 41.0 °F 93% 30.31 in 0.8 mi Calm Calm - N/A   Clear
12:20 AM 42.8 °F - 41.0 °F 93% 30.32 in 0.8 mi Calm Calm - N/A   Clear
12:21 AM 42.8 °F - 41.0 °F 93% 30.32 in 1.0 mi Calm Calm - N/A   Clear
12:22 AM 42.8 °F - 41.0 °F 93% 30.32 in 1.0 mi Calm Calm - N/A   Clear
12:23 AM 42.8 °F - 42.8 °F 100% 30.32 in 1.2 mi Calm Calm - N/A   Clear
12:24 AM 42.8 °F - 42.8 °F 100% 30.32 in 1.5 mi Calm Calm - N/A   Clear
12:25 AM 42.8 °F - 42.8 °F 100% 30.32 in 1.8 mi Calm Calm - N/A   Clear
12:26 AM 42.8 °F - 42.8 °F 100% 30.32 in 2.5 mi Calm Calm - N/A   Clear
12:27 AM 42.8 °F - 42.8 °F 100% 30.32 in 3.0 mi Calm Calm - N/A   Clear
12:40 AM 41.0 °F - 41.0 °F 100% 30.32 in 2.5 mi Calm Calm - N/A   Clear
12:41 AM 41.0 °F - 41.0 °F 100% 30.32 in 1.8 mi Calm Calm - N/A   Clear
12:42 AM 41.0 °F - 41.0 °F 100% 30.32 in 1.2 mi Calm Calm - N/A   Clear
12:43 AM 41.0 °F - 41.0 °F 100% 30.32 in 1.0 mi Calm Calm - N/A   Clear
12:44 AM 41.0 °F - 39.2 °F 93% 30.32 in 0.8 mi Calm Calm - N/A   Clear
12:46 AM 39.2 °F - 39.2 °F 100% 30.32 in 0.5 mi Calm Calm - N/A Fog Fog
12:49 AM 39.2 °F - 39.2 °F 100% 30.32 in 0.5 mi Calm Calm - N/A Fog Fog
12:55 AM 38.5 °F - 38.1 °F 99% 30.31 in 0.5 mi Calm Calm - N/A Fog Fog
1:01 AM 39.2 °F - 39.2 °F 100% 30.31 in 0.8 mi Calm Calm - N/A   Clear
1:02 AM 39.2 °F - 39.2 °F 100% 30.31 in 0.8 mi Calm Calm - N/A   Clear
1:05 AM 39.2 °F - 39.2 °F 100% 30.31 in 1.0 mi Calm Calm - N/A   Clear
1:06 AM 39.2 °F - 39.2 °F 100% 30.31 in 1.2 mi Calm Calm - N/A   Clear
1:08 AM 39.2 °F - 39.2 °F 100% 30.31 in 1.8 mi Calm Calm - N/A   Clear
1:09 AM 39.2 °F - 39.2 °F 100% 30.30 in 2.0 mi Calm Calm - N/A   Clear
1:10 AM 39.2 °F - 39.2 °F 100% 30.30 in 3.0 mi Calm Calm - N/A   Clear
1:33 AM 41.0 °F - 41.0 °F 100% 30.30 in 2.5 mi Calm Calm - N/A   Clear
1:34 AM 41.0 °F - 41.0 °F 100% 30.30 in 1.5 mi Calm Calm - N/A   Clear
1:35 AM 41.0 °F - 41.0 °F 100% 30.30 in 1.0 mi Calm Calm - N/A   Clear
1:37 AM 41.0 °F - 41.0 °F 100% 30.30 in 0.8 mi Calm Calm - N/A   Clear
1:39 AM 41.0 °F - 39.2 °F 93% 30.30 in 0.5 mi Calm Calm - N/A Fog Fog
1:40 AM 39.2 °F - 39.2 °F 100% 30.30 in 0.5 mi Calm Calm - N/A Fog Fog
1:41 AM 39.2 °F - 39.2 °F 100% 30.30 in 0.5 mi Calm Calm - N/A Fog Fog
1:42 AM 39.2 °F - 39.2 °F 100% 30.30 in 0.5 mi Calm Calm - N/A Fog Fog
1:55 AM 39.7 °F - 39.4 °F 99% 30.30 in 0.5 mi Calm Calm - N/A Fog Fog
2:21 AM 39.2 °F - 39.2 °F 100% 30.29 in 0.5 mi Calm Calm - N/A Fog Fog
2:22 AM 39.2 °F - 39.2 °F 100% 30.29 in 0.5 mi Calm Calm - N/A Fog Fog
2:23 AM 39.2 °F - 39.2 °F 100% 30.29 in 0.5 mi Calm Calm - N/A Fog Fog
2:24 AM 39.2 °F - 39.2 °F 100% 30.29 in 0.5 mi Calm Calm - N/A Fog Fog
2:25 AM 41.0 °F - 39.2 °F 93% 30.29 in 0.8 mi Calm Calm - N/A   Clear
2:27 AM 41.0 °F - 41.0 °F 100% 30.29 in 1.0 mi Calm Calm - N/A   Clear
2:28 AM 41.0 °F - 41.0 °F 100% 30.29 in 1.2 mi Calm Calm - N/A   Clear
2:29 AM 41.0 °F - 41.0 °F 100% 30.29 in 2.0 mi Calm Calm - N/A   Clear
2:30 AM 41.0 °F - 41.0 °F 100% 30.29 in 4.0 mi Calm Calm - N/A   Clear
2:47 AM 39.2 °F - 39.2 °F 100% 30.29 in 2.5 mi Calm Calm - N/A   Clear
2:49 AM 39.2 °F - 39.2 °F 100% 30.29 in 1.8 mi Calm Calm - N/A   Clear
2:50 AM 39.2 °F - 39.2 °F 100% 30.29 in 1.2 mi Calm Calm - N/A   Clear
2:51 AM 39.2 °F - 37.4 °F 93% 30.29 in 1.0 mi Calm Calm - N/A   Clear
2:53 AM 39.2 °F - 37.4 °F 93% 30.29 in 0.8 mi Calm Calm - N/A   Clear
2:55 AM 38.5 °F - 38.3 °F 99% 30.29 in 0.8 mi Calm Calm - N/A   Clear
2:56 AM 39.2 °F - 37.4 °F 93% 30.29 in 0.8 mi Calm Calm - N/A   Clear
2:57 AM 39.2 °F - 37.4 °F 93% 30.29 in 0.5 mi Calm Calm - N/A Fog Fog
2:58 AM 39.2 °F - 39.2 °F 100% 30.29 in 0.5 mi Calm Calm - N/A Fog Fog
3:06 AM 39.2 °F - 39.2 °F 100% 30.29 in 0.5 mi Calm Calm - N/A Fog Fog
3:07 AM 39.2 °F - 39.2 °F 100% 30.29 in 0.5 mi Calm Calm - N/A Fog Fog
3:09 AM 39.2 °F - 39.2 °F 100% 30.29 in 0.8 mi Calm Calm - N/A   Clear
3:11 AM 39.2 °F - 39.2 °F 100% 30.29 in 1.0 mi Calm Calm - N/A   Clear
3:14 AM 39.2 °F - 39.2 °F 100% 30.29 in 1.2 mi Calm Calm - N/A   Clear
3:21 AM 37.4 °F - 37.4 °F 100% 30.29 in 1.0 mi Calm Calm - N/A   Clear
3:34 AM 39.2 °F - 39.2 °F 100% 30.29 in 0.8 mi Calm Calm - N/A   Clear
3:36 AM 39.2 °F - 39.2 °F 100% 30.29 in 0.5 mi Calm Calm - N/A Fog Fog
3:38 AM 39.2 °F - 39.2 °F 100% 30.29 in 0.5 mi Calm Calm - N/A Fog Fog
3:41 AM 39.2 °F - 37.4 °F 93% 30.28 in 0.5 mi Calm Calm - N/A Fog Fog
3:55 AM 37.6 °F - 37.4 °F 99% 30.28 in 0.5 mi Calm Calm - N/A Fog Fog
4:00 AM 35.6 °F - 35.6 °F 100% 30.28 in 0.2 mi Calm Calm - N/A Fog Fog
4:12 AM 37.4 °F - 35.6 °F 93% 30.28 in 0.5 mi Calm Calm - N/A Fog Fog
4:35 AM 37.4 °F - 37.4 °F 100% 30.27 in 0.2 mi Calm Calm - N/A Fog Fog
4:43 AM 37.4 °F - 35.6 °F 93% 30.28 in 0.5 mi Calm Calm - N/A Fog Fog
4:45 AM 37.4 °F - 35.6 °F 93% 30.28 in 0.5 mi Calm Calm - N/A Fog Fog
4:46 AM 37.4 °F - 35.6 °F 93% 30.28 in 0.5 mi Calm Calm - N/A Fog Fog
4:47 AM 37.4 °F - 35.6 °F 93% 30.28 in 0.5 mi Calm Calm - N/A Fog Fog
4:48 AM 37.4 °F - 35.6 °F 93% 30.27 in 0.8 mi Calm Calm - N/A   Clear
4:50 AM 37.4 °F - 35.6 °F 93% 30.28 in 1.0 mi Calm Calm - N/A   Clear
4:51 AM 37.4 °F - 35.6 °F 93% 30.28 in 1.2 mi Calm Calm - N/A   Clear
4:54 AM 37.4 °F - 37.4 °F 100% 30.28 in 1.2 mi Calm Calm - N/A   Clear
4:55 AM 37.4 °F - 37.0 °F 99% 30.28 in 1.2 mi Calm Calm - N/A   Clear
4:56 AM 37.4 °F - 37.4 °F 100% 30.28 in 1.0 mi Calm Calm - N/A   Clear
4:58 AM 37.4 °F - 37.4 °F 100% 30.28 in 0.8 mi Calm Calm - N/A   Clear
5:00 AM 37.4 °F - 37.4 °F 100% 30.28 in 0.5 mi Calm Calm - N/A Fog Fog
5:01 AM 37.4 °F - 37.4 °F 100% 30.28 in 0.5 mi Calm Calm - N/A Fog Fog
5:08 AM 35.6 °F - 35.6 °F 100% 30.29 in 0.5 mi Calm Calm - N/A Fog Fog
5:20 AM 35.6 °F - 35.6 °F 100% 30.29 in 0.2 mi Calm Calm - N/A Fog Fog
5:24 AM 35.6 °F - 35.6 °F 100% 30.28 in 0.5 mi Calm Calm - N/A Fog Fog
5:29 AM 37.4 °F - 37.4 °F 100% 30.28 in 0.5 mi Calm Calm - N/A Fog Fog
5:31 AM 37.4 °F - 37.4 °F 100% 30.28 in 0.5 mi Calm Calm - N/A Fog Fog
5:32 AM 37.4 °F - 37.4 °F 100% 30.28 in 0.8 mi Calm Calm - N/A   Clear
5:33 AM 37.4 °F - 37.4 °F 100% 30.28 in 0.8 mi Calm Calm - N/A   Clear
5:34 AM 37.4 °F - 37.4 °F 100% 30.28 in 1.0 mi Calm Calm - N/A   Clear
5:35 AM 37.4 °F - 37.4 °F 100% 30.28 in 1.2 mi Calm Calm - N/A   Clear
5:36 AM 37.4 °F - 37.4 °F 100% 30.28 in 1.8 mi Calm Calm - N/A   Clear
5:37 AM 39.2 °F - 37.4 °F 93% 30.28 in 3.0 mi Calm Calm - N/A   Clear
5:50 AM 39.2 °F - 37.4 °F 93% 30.28 in 3.0 mi Calm Calm - N/A   Clear
5:53 AM 37.4 °F - 37.4 °F 100% 30.28 in 3.0 mi Calm Calm - N/A   Clear
5:55 AM 37.9 °F - 37.8 °F 99% 30.28 in 3.0 mi Calm Calm - 0.00 in   Clear
6:02 AM 39.2 °F - 37.4 °F 93% 30.28 in 2.5 mi Calm Calm - N/A   Clear
6:03 AM 39.2 °F - 37.4 °F 93% 30.28 in 3.0 mi Calm Calm - N/A   Clear
6:05 AM 39.2 °F - 39.2 °F 100% 30.28 in 3.0 mi Calm Calm - N/A   Clear
6:18 AM 37.4 °F - 37.4 °F 100% 30.29 in 2.0 mi Calm Calm - N/A   Clear
6:19 AM 37.4 °F - 37.4 °F 100% 30.29 in 1.8 mi Calm Calm - N/A   Clear
6:20 AM 37.4 °F - 37.4 °F 100% 30.29 in 1.5 mi Calm Calm - N/A   Clear
6:21 AM 37.4 °F - 37.4 °F 100% 30.29 in 1.2 mi Calm Calm - N/A   Clear
6:22 AM 37.4 °F - 37.4 °F 100% 30.29 in 1.0 mi Calm Calm - N/A   Clear
6:23 AM 37.4 °F - 37.4 °F 100% 30.29 in 0.8 mi Calm Calm - N/A   Clear
6:26 AM 37.4 °F - 35.6 °F 93% 30.29 in 0.5 mi Calm Calm - N/A Fog Fog
6:28 AM 35.6 °F 32.8 °F 35.6 °F 100% 30.30 in 0.5 mi NW 3.5 mph - N/A Fog Fog
6:39 AM 35.6 °F - 35.6 °F 100% 30.30 in 0.5 mi Calm Calm - N/A Fog Fog
6:53 AM 35.6 °F - 35.6 °F 100% 30.30 in 0.8 mi Calm Calm - N/A   Clear
6:54 AM 35.6 °F - 35.6 °F 100% 30.30 in 0.8 mi Calm Calm - N/A   Clear
6:55 AM 36.3 °F - 36.1 °F 99% 30.30 in 0.8 mi Calm Calm - 0.00 in   Clear
7:01 AM 37.4 °F - 37.4 °F 100% 30.30 in 0.5 mi Calm Calm - N/A Fog Fog
7:05 AM 37.4 °F - 37.4 °F 100% 30.30 in 0.2 mi Calm Calm - N/A Fog Fog
7:06 AM 37.4 °F - 37.4 °F 100% 30.30 in 0.2 mi Calm Calm - N/A Fog Fog
7:10 AM 37.4 °F - 35.6 °F 93% 30.30 in 0.2 mi Calm Calm - N/A Fog Fog
7:27 AM 35.6 °F - 35.6 °F 100% 30.30 in 0.2 mi Calm Calm - N/A Fog Fog
7:32 AM 35.6 °F - 35.6 °F 100% 30.30 in 0.2 mi Calm Calm - N/A Fog Fog
7:34 AM 35.6 °F - 35.6 °F 100% 30.30 in 0.2 mi Calm Calm - N/A Fog Fog
7:35 AM 35.6 °F - 35.6 °F 100% 30.30 in 0.2 mi Calm Calm - N/A Fog Fog
7:39 AM 37.4 °F - 35.6 °F 93% 30.30 in 0.5 mi Calm Calm - N/A Fog , Snow Light Snow
7:43 AM 37.4 °F - 37.4 °F 100% 30.30 in 0.5 mi Calm Calm - N/A Fog , Snow Light Snow
7:45 AM 37.4 °F - 37.4 °F 100% 30.30 in 0.8 mi Calm Calm - N/A Snow Light Snow
7:48 AM 37.4 °F - 37.4 °F 100% 30.30 in 1.0 mi Calm Calm - N/A Snow Light Snow
7:49 AM 37.4 °F - 37.4 °F 100% 30.30 in 1.2 mi Calm Calm - N/A Snow Light Snow
7:50 AM 37.4 °F - 37.4 °F 100% 30.30 in 1.5 mi Calm Calm - N/A Snow Light Snow
7:51 AM 37.4 °F - 37.4 °F 100% 30.30 in 2.5 mi Calm Calm - N/A Snow Light Snow
7:52 AM 37.4 °F - 37.4 °F 100% 30.30 in 4.0 mi Calm Calm - N/A Snow Light Snow
7:54 AM 37.4 °F - 37.4 °F 100% 30.30 in 2.5 mi Calm Calm - N/A Snow Light Snow
7:56 AM 37.4 °F - 37.4 °F 100% 30.32 in 1.5 mi Calm Calm - N/A   Clear
8:19 AM 41.0 °F - 41.0 °F 100% 30.29 in 10.0 mi Calm Calm - N/A   Clear
8:55 AM 45.5 °F 43.2 °F 45.1 °F 99% 30.30 in 10.0 mi NW 4.6 mph - N/A   Clear
9:55 AM 52.7 °F - 52.3 °F 99% 30.29 in 10.0 mi NNE 5.8 mph - N/A   Clear
10:55 AM 58.8 °F - 46.2 °F 63% 30.28 in 10.0 mi North 3.5 mph - N/A   Clear
11:55 AM 62.1 °F - 47.7 °F 59% 30.26 in 10.0 mi NW 5.8 mph - N/A   Clear
12:55 PM 64.8 °F - 48.6 °F 56% 30.23 in 10.0 mi NNW 6.9 mph - N/A   Partly Cloudy
1:55 PM 65.3 °F - 50.0 °F 58% 30.21 in 10.0 mi Variable 3.5 mph - N/A   Partly Cloudy
2:55 PM 67.5 °F - 50.9 °F 55% 30.19 in 10.0 mi NW 6.9 mph - N/A   Scattered Clouds
3:55 PM 66.4 °F - 51.8 °F 59% 30.18 in 10.0 mi NW 6.9 mph - N/A   Overcast
4:55 PM 65.5 °F - 52.2 °F 62% 30.18 in 10.0 mi NW 8.1 mph - N/A   Overcast
5:55 PM 63.5 °F - 52.7 °F 68% 30.19 in 10.0 mi NE 5.8 mph - N/A   Overcast
6:13 PM 64.4 °F - 53.6 °F 68% 30.19 in 10.0 mi NNE 4.6 mph - N/A   Overcast
6:21 PM 64.4 °F - 53.6 °F 68% 30.19 in 10.0 mi NE 4.6 mph - N/A   Overcast
6:55 PM 63.0 °F - 53.6 °F 71% 30.18 in 10.0 mi Calm Calm - N/A   Overcast
7:08 PM 62.6 °F - 53.6 °F 72% 30.18 in 10.0 mi ENE 3.5 mph - N/A   Overcast
7:09 PM 62.6 °F - 53.6 °F 72% 30.18 in 10.0 mi ENE 3.5 mph - N/A   Overcast
7:55 PM 60.6 °F - 53.1 °F 76% 30.18 in 10.0 mi Calm Calm - N/A   Mostly Cloudy
8:55 PM 60.4 °F - 53.1 °F 77% 30.19 in 10.0 mi NNE 5.8 mph - N/A   Overcast
9:55 PM 59.9 °F - 53.1 °F 78% 30.20 in 10.0 mi Calm Calm - N/A   Overcast
10:55 PM 58.1 °F - 53.1 °F 83% 30.20 in 10.0 mi North 3.5 mph - N/A   Overcast
11:15 PM 59.0 °F - 53.6 °F 82% 30.20 in 10.0 mi Calm Calm - N/A   Overcast
11:17 PM 59.0 °F - 53.6 °F 82% 30.20 in 10.0 mi Calm Calm - N/A   Overcast
11:19 PM 59.0 °F - 53.6 °F 82% 30.19 in 10.0 mi Calm Calm - N/A   Overcast
11:55 PM 57.9 °F - 53.2 °F 84% 30.19 in 10.0 mi Calm Calm - N/A   Overcast